Location: Prairie Dale
(45.6972°N, 104.5033°W)
Time: 21:33:37
(UTC+00:00)

STARS - Pass Details

Date: 07 July 2022
Orbit: 620 x 637 km, 98.2° (Epoch: 16 August)

Event Time Altitude Azimuth Distance (km) Brightness Sun altitude
Rises 05:10:03 0° 21° (NNE) 2,927 ? -17.1°
Reaches altitude 10° 05:12:24 10° 29° (NNE) 2,011 ? -17.2°
Maximum altitude 05:16:28 37° 98° (E) 975 ? -17.6°
Enters shadow 05:17:27 33° 128° (SE) 1,062 ? -17.6°
